TimeCST,TemperatureF,Dew PointF,Humidity,Sea Level PressureIn,VisibilityMPH,Wind Direction,Wind SpeedMPH,Gust SpeedMPH,PrecipitationIn,Events,Conditions,WindDirDegrees,DateUTC
12:53 AM,3.9,-2.0,76,30.53,10.0,South,10.4,-,N/A,,Clear,180,2013-11-22 06:53:00
1:53 AM,5.0,-0.9,76,30.49,10.0,South,12.7,-,N/A,,Clear,180,2013-11-22 07:53:00
2:53 AM,5.0,-2.0,73,30.49,10.0,SSW,10.4,-,N/A,,Clear,200,2013-11-22 08:53:00
3:53 AM,3.9,-0.9,80,30.47,10.0,South,8.1,-,N/A,,Clear,180,2013-11-22 09:53:00
4:53 AM,6.1,1.0,80,30.45,10.0,South,9.2,-,N/A,,Partly Cloudy,190,2013-11-22 10:53:00
5:53 AM,9.0,3.0,77,30.46,10.0,SSW,8.1,-,N/A,,Overcast,200,2013-11-22 11:53:00
6:53 AM,12.0,7.0,80,30.48,4.0,WSW,5.8,-,0.00,Snow,Light Snow,240,2013-11-22 12:53:00
7:33 AM,17.6,12.2,79,30.41,1.0,WNW,5.8,-,0.01,Snow,Light Snow,290,2013-11-22 13:33:00
7:53 AM,17.1,14.0,88,30.49,1.0,WNW,5.8,-,0.01,Snow,Light Snow,290,2013-11-22 13:53:00
8:53 AM,18.0,14.0,84,30.51,1.0,NW,8.1,-,0.02,Snow,Light Snow,310,2013-11-22 14:53:00
9:20 AM,17.6,12.2,79,30.45,7.0,NW,8.1,-,0.00,Snow,Light Snow,320,2013-11-22 15:20:00
9:53 AM,18.0,10.9,74,30.53,6.0,NNW,17.3,-,0.00,Snow,Light Snow,340,2013-11-22 15:53:00
10:04 AM,17.6,10.4,73,30.47,1.8,North,19.6,-,0.00,Snow,Light Snow,350,2013-11-22 16:04:00
10:19 AM,15.8,8.6,73,30.48,2.0,North,19.6,-,0.00,Snow,Light Snow,360,2013-11-22 16:19:00
10:33 AM,14.0,8.6,79,30.50,3.0,North,25.3,28.8,0.00,Snow,Light Snow,360,2013-11-22 16:33:00
10:53 AM,14.0,6.1,71,30.58,10.0,North,17.3,-,0.00,,Overcast,350,2013-11-22 16:53:00
11:53 AM,12.9,3.0,65,30.60,10.0,NNW,20.7,25.3,N/A,,Mostly Cloudy,330,2013-11-22 17:53:00
12:53 PM,12.0,1.0,61,30.63,10.0,North,16.1,-,N/A,,Scattered Clouds,350,2013-11-22 18:53:00
1:53 PM,12.9,1.0,59,30.64,10.0,North,16.1,-,N/A,,Partly Cloudy,350,2013-11-22 19:53:00
2:53 PM,12.0,1.0,61,30.66,10.0,NNW,17.3,-,N/A,,Scattered Clouds,340,2013-11-22 20:53:00
3:53 PM,10.0,1.0,67,30.69,10.0,NNW,13.8,-,N/A,,Mostly Cloudy,340,2013-11-22 21:53:00
4:00 PM,10.4,1.4,67,30.62,10.0,NNW,13.8,-,N/A,,Mostly Cloudy,340,2013-11-22 22:00:00
4:32 PM,8.6,1.4,73,30.63,10.0,NNW,15.0,-,N/A,,Scattered Clouds,330,2013-11-22 22:32:00
4:53 PM,7.0,1.0,77,30.71,6.0,North,10.4,-,N/A,,Haze,350,2013-11-22 22:53:00
5:53 PM,3.0,-2.0,80,30.74,10.0,North,9.2,-,N/A,,Partly Cloudy,350,2013-11-22 23:53:00
6:53 PM,1.9,-4.0,76,30.78,10.0,North,10.4,-,N/A,,Partly Cloudy,350,2013-11-23 00:53:00
7:53 PM,1.0,-5.1,75,30.80,10.0,NNW,10.4,-,N/A,,Partly Cloudy,340,2013-11-23 01:53:00
8:53 PM,-0.9,-7.1,75,30.82,10.0,NNW,6.9,-,N/A,,Clear,330,2013-11-23 02:53:00
9:53 PM,-0.0,-6.0,76,30.83,10.0,NNW,9.2,-,N/A,,Mostly Cloudy,330,2013-11-23 03:53:00
10:53 PM,-0.9,-6.0,79,30.85,10.0,NNW,9.2,-,N/A,,Mostly Cloudy,330,2013-11-23 04:53:00
11:53 PM,-0.0,-6.0,76,30.87,10.0,NW,9.2,-,N/A,,Overcast,320,2013-11-23 05:53:00